SL-14 R/B, 22188

Orbit data source: Space-Track

SL-14 R/B, 22188 is space debris in LEO originally from a launch on Tue, 20 Oct 1992 UTC launched from the Plesetsk Missile And Space Complex (PKMTR). Debris objects in space refer to the collection of defunct objects orbiting the Earth. Examples of debris include non-operational satellites, rocket bodies, and fragments generated from explosions, collisions, or faulty payload assembly.

Loading next visibility...
SL-14 R/B details
Identifier
22188, 1992-068G
Orbit
LEO
Last TLE update11 hours ago
Origin
Flag of CISVKS (CIS)
ManufacturerYuzhnoe
MissionSpacecraft
Bus & MotorS5M, Unknown motor
Mass1,600 kg wet, 1,600 kg dry
Launch date (UTC)
1992-10-20 (32 years ago)
Launch vehicleUnknown
Launch site
Plesetsk Missile And Space Complex (PKMTR)
Object type
Payload
Rocket body
Debris
Shape & HBRCyl, 2.7 m
Radar Cross Section7.351 m², Large (>1 m²)

Expand to show TLE details & history

TLE from 11 hours ago
0 SL-14 R/B
1 22188U 92068G   24325.81459422  .00000027  00000-0  10100-3 0  9991
2 22188  82.5966  95.0641 0044681 323.1600 205.6561 12.54911328469686
Epoch: 2024-11-20T19:33Z
Definitive object data (Epoch: 2024-11-20T19:33:00.94Z)
Latitude11.26422°
Longitude-79.9708°
Altitude1,477.528 km
Speed7.111 km/s
True Right ascension18h 14m 21s
True Declination11° 12' 16"
Sunlit
Object was in daylight at TLE epoch
Visualization TLE readout
Latitude41.83801°
Longitude107.86977°
Altitude1,443.797 km
Speed7.146 km/s
Apparent Right ascension10h 22m 50s
Apparent Declination13° 34' 60"
Sunlit
Object is in full shadow
Visualization observer readout
Local Sidereal Time03:23:49
Azimuth70.17° E
Elevation-2.244°
Doppler factor1
Orbital elements
Apogee altitude1,476.288 km
Perigee altitude1,406.411 km
Semi-major axis7,819.487 km
Eccentricity0.0044681
Inclination82.5966°
RAAN95.0641°
Arg. of periapsis323.16°
True anomaly205.43553°
Mean anomaly205.6561°
Eccentric anomaly205.5457°
Mean motion3.13889 °/min
BSTAR0.000101
Orbital period114.69 mins
Loading maneuver chart data...
Loading historical data...
Loading historical data...
Loading historical data...
Loading historical data...
Loading historical data...
Loading historical data...
Loading historical data...

SL-14 R/B Visibility forecast

Observer location: undefined°, undefined

Span
Click to sort rows by Start time (UTC) header in descending order
Start Az.
Max El. time (UTC)
Max El. Az.
Max El.
End time (UTC)
End Az.
12 mins2024-11-21 08:09:18.510Z133.507° SE2024-11-21 08:15:18.510Z85.43° E24.376°2024-11-21 08:21:18.510Z34.179° NE
14 mins2024-11-21 10:04:18.510Z205.705° SW2024-11-21 10:10:18.510Z271.872° WNW41.129°2024-11-21 10:18:18.510Z359.97° N
15 mins2024-11-21 20:09:18.510Z3.31° NNE2024-11-21 20:16:18.510Z90.596° ESE40.777°2024-11-21 20:24:18.510Z157.55° S
12 mins2024-11-21 22:05:18.510Z325.46° NNW2024-11-21 22:11:18.510Z273.351° WNW25.452°2024-11-21 22:17:18.510Z225.602° WSW
|